Terminal Aerodrome Forecast
Issued by NWS

Home | Current Version | Previous Version | Text Only | Print | Product List | Glossary On
Versions: 1 2 3 4 5 6 7 8 9 10 11 12 13
000
FTUS46 KSTO 291737
TAFRBL
TAF
KRBL 291737Z 2918/3018 17017G22KT P6SM SCT100
     FM292000 16018G27KT P6SM SCT200
     FM300400 17010KT P6SM FEW250=

USA.gov is the U.S. government's official web portal to all federal, state and local government web resources and services.